Flag for American Samoa Weather past 2 weeks in Pago Pago, American Samoa

Now
75 °F

Passing clouds.


Feels Like: 75 °F
Forecast: 78 / 83 °F
Wind: 14 mph from Southeast

Location: Pago Pago / Int. Airp.

Current Time: Jul 6, 2015 at 5:32:08 AM

Latest Report: Jul 6, 2015 at 4:51 AM


Visibility: 10 mi

Pressure: 29.91 "Hg

Humidity: 89%

Dew point: 72 °F

Location of Pago PagoLocation

Historic Weather in Pago Pago — Graph

°F

Pago Pago temperature yesterday

Maximum temperature yesterday: 84 °F (at 1:50 PM)
Minimum temperature yesterday: 75 °F (at 5:56 AM)
Average temperature yesterday: 80 °F

Past Weeks' High & Low Weather Summary

 TemperatureHumidityPressure
High85 °F (Jun 23, 1:52 PM)100% (Jun 24, 10:50 PM)29.97 "Hg (Jun 24, 10:50 PM)
Low74 °F (Jun 24, 10:50 PM)65% (Jun 21, 3:55 AM)29.57 "Hg (Jul 5, 1:00 AM)
Average79 °F82%29.88 "Hg
* Reported Jun 21 3:00 AM — Jul 6 3:50 AM, Pago Pago, Weather by CustomWeather, © 2015

Note: Actual official high and low records may vary slightly from our data, if they occured in-between our weather recording intervals... More about our weather records

Advertising

Pago Pago weather history for previous 24 hours

 ConditionsComfort  
Time TempWeatherWind HumidityBarometerVisibility
3:50 AM
Mon, Jul 6
79 °FPassing clouds.14 mph84%29.90 "Hg10 mi
3:00 AM79 °FPassing clouds.13 mph82%29.91 "Hg10 mi
2:56 AM79 °FPassing clouds.13 mph82%29.91 "Hg10 mi
2:00 AM79 °FPassing clouds.10 mph81%29.91 "Hg10 mi
1:52 AM79 °FPassing clouds.10 mph81%29.91 "Hg10 mi
1:00 AM80 °FPassing clouds.12 mph81%29.93 "Hg10 mi
12:52 AM80 °FPassing clouds.12 mph81%29.93 "Hg10 mi
12:00 AM80 °FPassing clouds.14 mph84%29.93 "Hg10 mi
11:50 PM
Sun, Jul 5
80 °FPassing clouds.14 mph84%29.93 "Hg10 mi
11:00 PM79 °FPartly cloudy.12 mph84%29.93 "Hg10 mi
10:52 PM80 °FPartly cloudy.12 mph83%29.93 "Hg10 mi
10:00 PM79 °FPartly cloudy.15 mph84%29.93 "Hg10 mi
9:52 PM79 °FPartly cloudy.15 mph84%29.93 "Hg10 mi
9:00 PM80 °FPartly cloudy.10 mph83%29.91 "Hg10 mi
8:50 PM80 °FPartly cloudy.10 mph83%29.91 "Hg10 mi
8:00 PM80 °FPartly cloudy.12 mph81%29.90 "Hg10 mi
7:50 PM80 °FPartly cloudy.12 mph81%29.90 "Hg10 mi
7:00 PM80 °FPartly cloudy.13 mph83%29.88 "Hg10 mi
6:50 PM80 °FPartly cloudy.13 mph83%29.88 "Hg10 mi
6:00 PM81 °FBroken clouds.10 mph81%29.87 "Hg12 mi
5:50 PM81 °FBroken clouds.10 mph81%29.87 "Hg12 mi
4:50 PM81 °FBroken clouds.8 mph79%29.86 "Hg12 mi
4:00 PM83 °FBroken clouds.9 mph78%29.86 "Hg12 mi
3:50 PM83 °FBroken clouds.9 mph78%29.86 "Hg12 mi
3:00 PM84 °FScattered clouds.7 mph74%29.87 "Hg12 mi
2:50 PM84 °FScattered clouds.7 mph74%29.87 "Hg12 mi
2:00 PM84 °FBroken clouds.8 mph78%29.89 "Hg12 mi
1:50 PM84 °FBroken clouds.8 mph78%29.89 "Hg12 mi
1:00 PM82 °FBroken clouds.9 mph81%29.91 "Hg12 mi
12:56 PM82 °FBroken clouds.9 mph81%29.91 "Hg12 mi
12:00 PM81 °FBroken clouds.3 mph84%29.93 "Hg12 mi
11:50 AM81 °FBroken clouds.3 mph84%29.93 "Hg12 mi
11:00 AM83 °FBroken clouds.2 mph79%29.95 "Hg12 mi
10:50 AM84 °FBroken clouds.2 mph79%29.95 "Hg12 mi
10:00 AM81 °FSprinkles. Partly sunny.3 mph84%29.96 "Hg11 mi
9:52 AM81 °FSprinkles. Partly sunny.3 mph84%29.96 "Hg11 mi
9:00 AM81 °FBroken clouds.No wind85%29.96 "Hg10 mi
8:52 AM81 °FBroken clouds.No wind85%29.96 "Hg10 mi
8:00 AM75 °FScattered clouds.No wind94%29.93 "Hg12 mi
7:50 AM75 °FScattered clouds.No wind94%29.93 "Hg12 mi
7:00 AM75 °FBroken clouds.3 mph94%29.90 "Hg12 mi
6:51 AM75 °FBroken clouds.3 mph94%29.90 "Hg12 mi
5:56 AM75 °FPassing clouds.2 mph94%29.88 "Hg10 mi
Weather by CustomWeather, © 2015

See weather overviewHow to use our weather pages